Location: Naloco
(16.5478°S, 37.1017°E)
Time: 02:21:11
(UTC+00:00)

GPS 2-14 Rocket1 - Pass Details

Date: 13 August 2020
Orbit: 476 x 541 km, 20.7° (Epoch: 23 September)

Event Time Altitude Azimuth Distance (km) Brightness Sun altitude
Rises 17:12:41 0° 267° (W) 2,686 7.6 -26.7°
Reaches altitude 10° 17:15:01 10° 262° (W) 1,793 6.3 -27.3°
Enters shadow 17:17:37 33° 241° (WSW) 913 4.3 -27.9°
